User: anonymous   Login
Location: Columbia
(38.9520°N, 92.3340°W)
Time: 14:07:46
(UTC-05:00)
Language:

CZ-2C R/B - Orbit

View from above orbital plane
View from above orbital plane
View from above satellite
View from above satellite

Ground track
Ground track

The orbit data is extracted from the following two-line orbital elements,

1 28480U 04046B   15109.15265416  .00000218  00000-0  98194-4 0  9998
2 28480 098.1305 247.3000 0143002 037.6181 067.3197 14.25486463541671
Epoch (UTC): 19 April 2015 03:39:49
Eccentricity: 0.0143002
inclination: 98.1305°
perigee height: 704 km
apogee height: 909 km
right ascension of ascending node: 247.3000°
argument of perigee: 37.6181°
revolutions per day: 14.25486463
mean anomaly at epoch: 67.3197°
orbit number at epoch: 54167

The dashed part of the orbit path shows where the satellite is in the earth's shadow,  

DLR